This demonstration page uses our WeatherBlox Daily Observations layout. Learn more.

Left ArrowRight Arrow

40.92945, -100.16068

Hourly Observations for July 3, 2022

Temp ( °F °C ) Dew Point ( °F °C ) Humidity (%) Winds ( mph kmh ) Pressure ( in mb ) Visibility ( mi km ) Precip ( " mm )
12:15 am 00:15 Clear 70 20.9 66 18.8 88 88 SE 9 15 29.95 1014 10 16 0.00 0.00
12:35 am 00:35 Clear 69 20.4 66 18.8 91 91 SE 7 11 29.96 1015 10 16 0.00 0.00
12:55 am 00:55 Clear 68 20 66 18.7 92 92 ESE 6 9 29.96 1015 10 16 0.00 0.00
1:15 am 01:15 Clear 68 19.8 66 18.7 93 93 ESE 7 11 29.96 1015 10 16 0.00 0.00
1:35 am 01:35 Clear 68 20 66 18.9 93 93 SE 6 9 29.97 1015 10 16 0.00 0.00
1:55 am 01:55 Clear 67 19.6 66 18.7 95 95 SE 6 9 29.98 1015 7 11 0.00 0.00
2:15 am 02:15 Clear 67 19.5 66 18.7 95 95 SE 5 7 29.98 1015 7 11 0.00 0.00
2:35 am 02:35 Clear 67 19.2 65 18.5 96 96 SE 6 9 29.97 1015 7 11 0.00 0.00
2:55 am 02:55 Clear 67 19.2 65 18.6 96 96 SE 6 9 29.97 1015 7 11 0.00 0.00
3:15 am 03:15 Clear with Mist and Fog 66 19 65 18.4 96 96 SE 5 7 29.98 1015 5 8 0.00 0.00
3:35 am 03:35 Clear with Mist and Fog 66 18.9 65 18.4 97 97 SSE 5 7 29.97 1015 5 8 0.00 0.00
3:55 am 03:55 Clear with Mist and Fog 66 18.8 65 18.3 97 97 S 5 7 29.97 1015 5 8 0.00 0.00
4:15 am 04:15 Partly Cloudy with Mist and Fog 65 18.2 64 17.9 98 98 ESE 3 6 29.98 1015 3 5 0.00 0.00
4:35 am 04:35 Mostly Cloudy with Mist and Fog 66 19 66 18.7 98 98 ESE 3 6 29.97 1015 5 8 0.00 0.00
4:55 am 04:55 Cloudy with Mist and Fog 67 19.6 66 19.1 97 97 SE 5 7 29.97 1015 5 8 0.00 0.00
5:15 am 05:15 Cloudy with Mist and Fog 68 19.9 67 19.5 98 98 SE 6 9 29.96 1015 3 4 0.00 0.00
5:35 am 05:35 Cloudy with Mist and Fog 68 20.2 68 20 99 99 SSE 9 15 29.95 1014 1 2 0.00 0.00
5:55 am 05:55 Cloudy with Fog 69 20.5 68 20.1 98 98 S 10 17 29.95 1014 1 1 0.00 0.00
6:15 am 06:15 Cloudy with Mist and Fog 69 20.6 69 20.3 98 98 S 12 19 29.95 1014 1 2 0.00 0.00
6:35 am 06:35 Cloudy with Mist and Fog 69 20.7 69 20.5 99 99 S 13 20 29.94 1014 2 3 0.00 0.00
6:55 am 06:55 Cloudy with Mist and Fog 69 20.8 69 20.5 98 98 SSE 9 15 29.94 1014 2 3 0.00 0.00
7:15 am 07:15 Cloudy with Mist and Fog 69 20.8 69 20.5 98 98 SSE 12 19 29.94 1014 2 3 0.00 0.00
7:35 am 07:35 Cloudy with Mist and Fog 70 21 69 20.6 98 98 SSE 14 22 29.93 1014 3 4 0.00 0.00
7:55 am 07:55 Cloudy with Mist and Fog 70 21.1 69 20.8 98 98 SSE 12 19 29.93 1014 3 5 0.00 0.00
8:15 am 08:15 Cloudy with Mist and Fog 70 21.2 70 20.9 98 98 SSE 10 17 29.92 1013 2 2 0.00 0.00
8:35 am 08:35 Cloudy with Mist and Fog 71 21.5 70 21.1 98 98 SSE 10 17 29.92 1013 1 2 0.00 0.00
8:55 am 08:55 Cloudy with Mist and Fog 71 21.6 70 21.1 97 97 SSE 12 19 29.92 1013 3 5 0.00 0.00
9:15 am 09:15 Cloudy with Mist and Fog 72 22 70 21.3 96 96 SSE 12 19 29.92 1013 4 6 0.00 0.00
9:35 am 09:35 Cloudy with Mist and Fog 72 22.2 70 21.3 95 95 SSE 13 20 29.92 1013 4 6 0.00 0.00
9:55 am 09:55 Cloudy 73 22.6 70 21.2 92 92 S 15 24 29.91 1013 7 11 0.00 0.00
10:15 am 10:15 Cloudy 73 23 70 21.2 90 90 S 14 22 29.91 1013 7 11 0.00 0.00
10:35 am 10:35 Cloudy 74 23.4 70 21.1 87 87 SSE 15 24 29.90 1013 10 16 0.00 0.00
10:55 am 10:55 Cloudy 75 23.9 70 21 84 84 SSE 14 22 29.90 1012 10 16 0.00 0.00
11:15 am 11:15 Cloudy 76 24.5 70 21.1 81 81 S 15 24 29.89 1012 10 16 0.00 0.00
11:35 am 11:35 Cloudy 78 25.5 71 21.7 80 80 S 15 24 29.88 1012 10 16 0.00 0.00
11:55 am 11:55 Partly Cloudy 80 26.4 71 21.7 75 75 SSE 14 22 29.86 1011 10 16 0.00 0.00
12:15 pm 12:15 Mostly Cloudy 80 26.8 71 21.6 73 73 S 15 24 29.86 1011 10 16 0.00 0.00
12:35 pm 12:35 Mostly Cloudy 80 26.9 71 21.6 73 73 S 13 20 29.85 1011 10 16 0.00 0.00
12:55 pm 12:55 Partly Cloudy 82 27.8 71 21.9 70 70 SE 12 19 29.84 1010 10 16 0.00 0.00
1:15 pm 13:15 Sunny 84 28.9 72 22 66 66 SSE 14 22 29.82 1010 10 16 0.00 0.00
1:35 pm 13:35 Sunny 85 29.5 72 22 64 64 SSE 14 22 29.80 1009 10 16 0.00 0.00
1:55 pm 13:55 Sunny 87 30.4 71 21.8 60 60 SE 16 26 29.80 1009 10 16 0.00 0.00
2:15 pm 14:15 Sunny 87 30.7 72 22.2 61 61 SSE 12 19 29.78 1009 10 16 0.00 0.00
2:35 pm 14:35 Sunny 88 31.1 72 22.4 60 60 SSE 17 28 29.78 1008 10 16 0.00 0.00
2:55 pm 14:55 Partly Cloudy 89 31.6 72 22.1 57 57 SE 17 28 29.77 1008 10 16 0.00 0.00
3:15 pm 15:15 Sunny 90 32.3 71 21.6 53 53 SSE 16 26 29.75 1007 10 16 0.00 0.00
3:35 pm 15:35 Sunny 90 32.3 71 21.6 53 53 SE 17 28 29.75 1007 10 16 0.00 0.00
3:55 pm 15:55 Sunny 91 33 71 21.5 51 51 SSE 18 30 29.74 1007 10 16 0.00 0.00
4:15 pm 16:15 Sunny 91 32.8 70 21.2 50 50 SE 18 30 29.74 1007 7 11 0.00 0.00
4:35 pm 16:35 Sunny 91 33 70 20.9 49 49 SE 18 30 29.73 1007 7 11 0.00 0.00
4:55 pm 16:55 Sunny 90 32.4 70 21.1 51 51 SE 18 30 29.73 1007 7 11 0.00 0.00
5:15 pm 17:15 Sunny 91 32.7 70 21.1 50 50 SE 20 31 29.72 1006 7 11 0.00 0.00
5:35 pm 17:35 Sunny 91 32.6 70 21 50 50 SE 21 33 29.71 1006 7 11 0.00 0.00
5:55 pm 17:55 Sunny 91 32.9 70 20.9 49 49 SE 18 30 29.71 1006 7 11 0.00 0.00
6:15 pm 18:15 Sunny 89 31.6 70 20.9 53 53 SE 17 28 29.71 1006 10 16 0.00 0.00
6:35 pm 18:35 Sunny 87 30.7 70 21.3 57 57 SE 16 26 29.70 1006 7 11 0.00 0.00
6:55 pm 18:55 Sunny 86 30 72 22 62 62 SE 15 24 29.71 1006 10 16 0.00 0.00
7:15 pm 19:15 Sunny 85 29.5 71 21.6 63 63 ESE 15 24 29.69 1006 7 11 0.00 0.00
7:35 pm 19:35 Sunny 84 29 71 21.8 65 65 ESE 18 30 29.70 1006 10 16 0.00 0.00
7:55 pm 19:55 Sunny 84 28.8 72 22 67 67 ESE 17 28 29.69 1005 7 11 0.00 0.00
8:15 pm 20:15 Sunny with Nearby Thunderstorms 83 28.6 72 22 68 68 E 14 22 29.70 1006 10 16 0.00 0.00
8:35 pm 20:35 Sunny with Nearby Thunderstorms 83 28.5 72 22.2 69 69 ESE 14 22 29.72 1006 10 16 0.00 0.00
8:55 pm 20:55 Sunny 82 28 72 22.4 72 72 ESE 12 19 29.75 1007 10 16 0.00 0.00
9:15 pm 21:15 Partly Cloudy 80 26.9 74 23.1 80 80 S 12 19 29.77 1008 10 16 0.00 0.00
9:35 pm 21:35 Cloudy 73 22.8 70 21.3 91 91 SW 21 33 29.85 1011 5 8 0.09 2.29
9:55 pm 21:55 Cloudy 73 23 72 22 94 94 SSW 14 22 29.86 1011 3 4 0.32 8.13
10:15 pm 22:15 Cloudy with Thunderstorms 72 22.1 70 21.2 95 95 S 15 24 29.85 1011 3 5 0.23 5.84
10:35 pm 22:35 Windy with Storms Likely 70 21 66 19.1 89 89 E 20 31 29.83 1010 10 16 0.24 6.10
10:55 pm 22:55 Mostly Cloudy with Thunderstorms 70 20.9 65 18.6 87 87 E 13 20 29.82 1010 10 16 0.24 6.10
11:15 pm 23:15 Partly Cloudy 69 20.7 66 18.8 89 89 E 14 22 29.83 1010 10 16 0.00 0.00
11:35 pm 23:35 Partly Cloudy with Nearby Thunderstorms 69 20.5 67 19.3 93 93 E 12 19 29.83 1010 10 16 0.01 0.25
11:55 pm 23:55 Partly Cloudy with Rain 70 21.1 68 19.9 93 93 E 12 19 29.81 1010 10 16 0.01 0.25

Powered by AerisWeather